Вернуться в каталог

UMBRA-10

АктивенНаукаSSO
NORAD 60547·PAYLOAD·🇺🇸 United States

Запущен Aug 16, 2024 с Vandenberg Space Force Base

Loading…

Ближайшие Пролёты (ближайшие 24 часа)

TLE

СвежийSource: Space-Track

Эпоха: Sep 13, 2026, 18:48 UTC

1 60547U 24149CH  26256.78344951  .00012359  00000-0  56865-3 0  9997
2 60547  97.6953 345.6876 0001535  72.0114 288.1288 15.20478444114182

Отслеживайте UMBRA-10 в реальном времени с AllMySat

Download on the App Store